Other Public Products
Issued by NWS Grand Forks, ND

Home | Current Version | Previous Version | Graphics & Text | Print | Product List | Glossary On
Versions: 1 2 3 4 5 6 7 8 9 10 11 12 13 14 15 16 17 18 19 20 21 22 23 24 25 26 27 28 29 30 31 32 33 34 35 36 37 38 39 40 41 42 43 44 45 46 47 48 49 50
000
FPUS83 KFGF 030531
OPUFGF
PRAIRIE TO PINES WEATHER ROUNDUP
NATIONAL WEATHER SERVICE EASTERN NORTH DAKOTA/GRAND FORKS ND
1100 PM CST MON MAR 02 2015

 **SATELLITE DATA USED TO AUGMENT SKY COVER AT AUTOMATED STATIONS**
 *****  WEATHER ACROSS EASTERN NORTH DAKOTA  *****

CITY           SKY/WX    TMP DP  RH WIND       PRES   REMARKS
GRAND FORKS    MOCLDY    24  18  77 S18       29.77F WCI  10
GRAND FORKS AF FAIR      25  18  74 S15       29.75F WCI  12
GRAND CITY NWS   N/A     23 N/A N/A S13         N/A  WCI  11
BUXTON         NOT AVBL
DEVILS LAKE    FAIR      21  16  79 W16       29.72S WCI   7
FARGO          FAIR      27  18  69 S24G33    29.81F WCI  12
WAHPETON ARPT  CLOUDY    27  19  74 S21G26    29.84F WCI  13
$$

 *****  WEATHER ACROSS CENTRAL AND WESTERN NORTH DAKOTA  *****

CITY           SKY/WX    TMP DP  RH WIND       PRES   REMARKS
JAMESTOWN      FAIR      26  19  74 S14       29.72F WCI  14
BISMARCK       FAIR      28  20  71 NW24G31   29.78R WCI  14
MINOT          FLURRIES  17  10  74 NW26G37   29.81S WCI  -2
MINOT AFB      DRIZZLE   16  12  86 NW31      29.81S FOG     WCI  -5
GARRISON         N/A     17  11  77 NW33G39   29.80R WCI  -4
WILLISTON      FLURRIES  17   9  70 N16G25    29.95R WCI   2
DICKINSON      MOCLDY    17  10  74 NW21G26   29.83R WCI   0
HETTINGER      MOCLDY    23  17  78 N28G39    29.78R WCI   6
$$

 *****  OTHER OBSERVATIONS NORTHEAST NORTH DAKOTA  *****

CITY           SKY/WX    TMP DP  RH WIND       PRES   REMARKS
WALHALLA         N/A     25  19  80 SW12      29.71S WCI  14
LANGDON        NOT AVBL
CAVALIER       FAIR      23  18  80 SW12      29.72S WCI  12
GRAFTON        NOT AVBL
CANDO          FAIR      19  16  86 W20       29.72R WCI   4
FORT TOTTEN      N/A     25  20  80 SW6       29.95S WCI  18
ROLLA          FLURRIES  19  14  79 NW25G35   29.71S WCI   2
RUGBY          FAIR      18  14  86 NW29G36   29.75R WCI  -2
 ***** THE ABOVE OBSERVATIONS ARE NON NWS ARE NOT QUALITY
        CONTROLLED AND MAY MIS-REPORT RAIN FOR SNOW...
$$

 *****  OTHER OBSERVATIONS SOUTHEAST NORTH DAKOTA *****

CITY           SKY/WX    TMP DP  RH WIND       PRES   REMARKS
COOPERSTOWN    NOT AVBL
VALLEY CITY    FAIR      25  23  93 S13       29.74F WCI  13
OAKES            N/A     27  23  86 S18       29.75S WCI  13
GWINNER        CLEAR     32  23  69 S18       29.77F WCI  20
SHEYENNE NWR     N/A     26  19  74 S14       29.95S WCI  14
BUFFALO        NOT AVBL
WYNDMERE         N/A     27  19  74 S13         N/A  WCI  16
 ***** THE ABOVE OBSERVATIONS ARE NON NWS ARE NOT QUALITY
       CONTROLLED AND MAY MIS-REPORT RAIN FOR SNOW...
$$

  *****  WEATHER ACROSS NORTHERN MINNESOTA  *****

CITY           SKY/WX    TMP DP  RH WIND       PRES   REMARKS
FLAG ISLAND    CLOUDY    19  16  86 S13       29.74F WCI   7
WARROAD        MOCLDY    25  16  68 S13G20    29.75F WCI  13
ROSEAU         FAIR      25  18  74 S18G25    29.73F WCI  11
HALLOCK        FAIR      19  16  86 S16       29.74F WCI   5
THF RVR FALLS  FAIR      25  18  74 S16       29.77F WCI  12
HALSTAD          N/A     26  18  71 S26         N/A  WCI  10
FOSSTON        CLOUDY    25  18  74 S18       29.79F WCI  11
BAUDETTE       CLOUDY    24  11  57 S16       29.78F WCI  11
WASKISH        CLOUDY    25  12  58 S13G20    29.81F WCI  13
CROOKSTON      FAIR      25  19  80 S23       29.80F WCI  10
$$
  *****  WEATHER ACROSS CENTRAL AND WEST MINNESOTA  *****

CITY           SKY/WX    TMP DP  RH WIND       PRES   REMARKS
BEMIDJI        CLOUDY    23  14  67 S17       29.83F WCI   9
PARK RAPIDS    CLOUDY    23  13  65 S20G29    29.87F WCI   8
WADENA         CLOUDY    21  16  79 S17       29.88F WCI   7
DETROIT LAKES  FAIR      27  19  74 S20G26    29.83F WCI  13
MOORHEAD       FAIR      27  21  80 S23G30    29.82F WCI  12
FERGUS FALLS   CLOUDY    25  18  74 S22       29.89F WCI  10
ELBOW LAKE     CLOUDY    24  20  85 S24G30    29.87F WCI   8
MORRIS MN      CLOUDY    25  21  86 S23G29    29.88F WCI  10
STAPLES        CLOUDY    21  14  73 S13       29.91F WCI   9
WHEATON        CLOUDY    25  19  80 SE21      29.87F WCI  10
$$
  *****  WEATHER ELSEWHERE ACROSS MINNESOTA  *****

CITY           SKY/WX    TMP DP  RH WIND       PRES   REMARKS
DULUTH         CLOUDY    20   4  50 S14       29.99F WCI   7
INTRNTL FALLS  CLOUDY    24   8  50 S13G23    29.84F WCI  12
ELY            CLOUDY    19   3  49 S12G17    29.93F WCI   7
CLOQUET        CLOUDY    19   5  53 S9        29.98F WCI   9
BRAINERD       CLOUDY    21  11  65 S18G24    29.95F WCI   6
HIBBING        CLOUDY    21   5  50 S7        29.94F WCI  12
ALEXANDRIA     CLOUDY    23  17  78 S17G26    29.91F WCI   9
SAINT CLOUD    CLOUDY    21  12  68 SE13      30.00F WCI   9
MINNEAPOLIS    CLOUDY    21  11  65 SE7       30.09F WCI  12
$$

  *****  WEATHER ACROSS SOUTH DAKOTA  *****

CITY           SKY/WX    TMP DP  RH WIND       PRES   REMARKS
SIOUX FALLS    CLOUDY    28  19  69 SE23      29.88F WCI  14
BROOKINGS      NOT AVBL
WATERTOWN      CLOUDY    26  21  81 S23       29.82F WCI  11
HURON          CLOUDY    31  21  66 S16       29.80F WCI  20
SISSETON         N/A     27  21  78 S17G25    29.82F WCI  14
ABERDEEN       FAIR      30  21  69 S20G26    29.77F WCI  17
MITCHELL       FAIR      31  21  66 MISG      29.83F
PIERRE         CLOUDY    36  20  52 SE9       29.71F
MOBRIDGE       FAIR      34  19  54 S7        29.69R
RAPID CITY     FLURRIES  36  23  59 N9        29.70R
$$

  *****  SOME WEATHER IN NEARBY STATES *****

CITY           SKY/WX    TMP DP  RH WIND       PRES   REMARKS
GLASGOW MT     CLOUDY    15   3  59 N28G36    30.05R WCI  -5
GREAT FALLS MT LGT SNOW  14   8  77 NE16      30.10R WCI  -2
CHEYENNE WY    CLOUDY    32  25  75 SW7       29.55F
SCOTTSBLUFF NE CLOUDY    30  24  78 E10       29.65F WCI  21
OMAHA NE       CLOUDY    32  20  61 S14       29.94F WCI  22
DES MOINES IA  CLOUDY    29  18  63 SE13      30.06F WCI  19
DAVENPORT IA   CLOUDY    26  17  68 SE13      30.20F WCI  15
CHICAGO IL     CLOUDY    25  15  66 S6        30.26F WCI  18
EAU CLAIRE WI  CLOUDY    23   9  55 S9        30.11F WCI  13
LA CROSSE WI   CLOUDY    26  14  60 S9        30.15F WCI  17
$$

  *****  SOME NATIONAL WEATHER *****

CITY           SKY/WX    TMP DP  RH WIND       PRES   REMARKS
LA GUARDIA NY  FAIR      28  12  51 NW13      30.37R WCI  17
RALEIGH NC     FAIR      37  27  67 NE3       30.35S
ATLANTA GA     MOCLDY    54  45  71 CALM      30.23F
NEW ORLEANS LA FOG       68  66  93 S7        30.19F VSB 1/4
OKLAHOMA CITY  CLOUDY    37  34  87 S16       30.06F FOG
ALBUQUERQUE NM CLOUDY    46  37  71 NW10      29.96R
SALT LAKE CITY CLOUDY    35  33  92 CALM      29.78R
LOS ANGELES CA FAIR      54  47  77 E9        29.96S
BOISE ID       CLOUDY    41  25  53 NW9       29.80R
SEATTLE WA     FAIR      45  30  55 N12       30.09R
$$

*** WEATHER ACROSS MANITOBA...SASKATCHEWAN AND ONTARIO ***
                ***ONTARIO***

CITY           SKY/WX    TMP DP  RH WIND       PRES   REMARKS
GERALDTON      PTCLDY     5   1  85 S3        29.98F
THUNDER BAY    PTCLDY     1   0  92 VRB2      30.06F
SIOUX LOOKOUT  MOCLDY    18   3  53 S5        29.80F WCI  11
TORONTO        CLEAR     14   7  73 SW7       30.39F WCI   4
BIG TROUT LK   MOCLDY    10   0  61 SW8       29.73F WCI  -1
PICKLE LAKE    NOT AVBL
DRYDEN         CLOUDY    19   7  58 S13G18    29.78F WCI   7
KENORA         CLOUDY    21   9  58 S13G22    29.73F WCI   9
$$
                *** MANITOBA***

CITY           SKY/WX    TMP DP  RH WIND       PRES   REMARKS
BRANDON        PTCLDY    14  10  85 NW22      29.74R WCI  -4
DAUPHIN        LGT SNOW  18  14  86 N22G28    29.76R VSB 1   WCI   0
ISLAND LAKE    PTCLDY    21   9  58 SW12      29.58F WCI   9
PILOT MOUND      N/A     21  16  79 W12         N/A  WCI   9
THE PAS        CLOUDY     3  -2  78 NW21G29   29.84R WCI -18
THOMPSON       LGT SNOW   3  -4  72 NW15G31   29.67R WCI -15
WINNIPEG       CLOUDY    23  16  74 S23G32    29.69F WCI   7
LYNN LAKE      LGT SNOW  -8 -15  71 NW17G33   29.82S WCI -31
CHURCHILL      LGT SNOW  -6 -11  77 E18       29.80F WCI -29
GILLAM         LGT SNOW  16  14  93 NW5       29.56F WCI   9
$$
                ***SASKATCHEWAN***

CITY           SKY/WX    TMP DP  RH WIND       PRES   REMARKS
ESTEVAN        LGT SNOW   9   5  85 NW30G37   29.91R DRFTSNOWWCI -14
KINDERSLEY     PTCLDY     3  -4  72 NW13      30.12S WCI -14
LLOYDMINSTER   MOCLDY     1  -6  71 NW14G21   30.14S WCI -17
PRINCE ALBERT  PTCLDY     0 -11  60 NW15      30.04R WCI -20
REGINA         CLOUDY     5   0  78 NW25G32   29.97S WCI -18



USA.gov is the U.S. government's official web portal to all federal, state and local government web resources and services.